Víctor Martínez

Olheiro-Chefe - Mirandés
23 Abr 2028
Domingo
Processo

Personalidade

Adaptabilidade (11) Ambição (15) Controvérsia (16) Lealdade (11) Pressão (18) Profissionalismo (4) Espírito Esportivo (20) Temperamento (18)

Perfil

Estilo de Treinamento Democrático
Licença Continental A
Determinação 7
Gestão de Pessoas 3
Motivação 10
Disciplina 5
Satisfação no Trabalho
100%
Fadiga
0%
Função Olheiro-Chefe
Salário 67.2K p/s
Contrato 14.03.2029

Desempenho

Comportamento Bom
Eficácia do Treinamento
44%
Desenvolvimento do Jogador
55%
Prevenção de Lesões
15%
Implementação Tática
30%

Eventos Recentes

Participou de uma reunião de recrutamento 7d atrás
Participou de uma reunião de recrutamento 14d atrás
Participou de uma reunião de recrutamento 21d atrás
Participou de uma reunião de recrutamento 28d atrás
Participou de uma reunião de recrutamento 35d atrás
Participou de uma reunião de recrutamento 42d atrás
Participou de uma reunião de recrutamento 49d atrás
Participou de uma reunião de recrutamento 56d atrás

Monitorando agora

58
Jogador Clube Status Habilidade Confiança Observado Última observação Último voto
Luken Reyes Barcelona Ativo 83 / 111 55% 1 24.01.2028 -
Ezequiel Rossi Granada Ativo 107 / 103 55% 1 10.01.2028 -
Diego Aznar Huesca Ativo 107 / 107 55% 1 11.01.2027 -
Peter Shalulile Mamelodi Sundowns Ativo 142 / 120 40% 1 30.12.2026 -
Aurélien Scheidler Charleroi Ativo 113 / 124 40% 1 30.12.2026 -
Bongani Khune SuperSport United Ativo 120 / 122 40% 3 29.12.2026 -
Sorriso Famalicao Ativo 136 / 133 40% 2 29.12.2026 -
Justo Giani Umraniyespor Ativo 138 / 122 40% 2 28.12.2026 -
Yousef Salech Cardiff City Ativo 130 / 127 40% 1 27.12.2026 -
José Arnáiz Granada Ativo 119 / 122 40% 1 27.12.2026 -
José Alvarado Leon Ativo 114 / 116 40% 1 26.12.2026 -
Lucas Varaldo Morelia Ativo 106 / 109 40% 2 20.12.2026 -
Juninho Pumas UNAM Ativo 121 / 137 40% 6 19.12.2026 -
Alejandro Piedrahita Deportivo Pereira Ativo 127 / 120 40% 1 19.12.2026 -
Joe Gelhardt Hull City Ativo 124 / 126 40% 2 18.12.2026 -
Peter Valjent FK Senica Ativo 111 / 117 40% 1 17.12.2026 -
Germán Valera Elche Ativo 138 / 133 40% 1 13.12.2026 -
Tomás Molina Argentinos Juniors Ativo 144 / 136 40% 3 12.12.2026 -
Anthony Lozano Santos Laguna Ativo 143 / 125 40% 3 12.12.2026 -
Rafael Navarro Famalicao Ativo 116 / 123 40% 1 02.12.2026 -
Mourad Tijuana Ativo 128 / 123 40% 1 01.12.2026 -
Jorge Obregón Deportivo Pasto Ativo 100 / 111 40% 3 29.11.2026 -
Ismael Díaz Leon Ativo 140 / 119 40% 5 27.11.2026 -
Ramiro Ruiz Rodríguez Atlético Tucumán Ativo 113 / 122 40% 2 26.11.2026 -
Nicolás Cordero Aldosivi Ativo 101 / 115 40% 2 20.11.2026 -
Antony Alonso Deportivo Riestra Ativo 133 / 128 40% 3 19.11.2026 -
Lucas Di Yorio Santos Laguna Ativo 134 / 104 40% 2 17.11.2026 -
Ignacio Russo Tigre Ativo 134 / 129 40% 2 16.11.2026 -
Alexander Díaz Deportivo Riestra Ativo 105 / 124 40% 2 14.11.2026 -
Heung-Min Son Los Angeles Football Club Ativo 144 / 155 40% 2 09.11.2026 -
Luis Muriel Junior Ativo 109 / 130 40% 1 08.11.2026 -
Christian Ebere Cruz Azul Ativo 111 / 127 40% 2 07.11.2026 -
Wilfrido De La Rosa Jaguares Ativo 103 / 111 40% 1 06.11.2026 -
Adrián Parra Deportes Tolima Ativo 117 / 127 40% 4 05.11.2026 -
Nico López Platense Ativo 112 / 120 40% 4 03.11.2026 -
Federico Martínez MFK Ruzomberok Ativo 130 / 119 40% 2 30.10.2026 -
Jhonatan Candia Barracas Central Ativo 139 / 122 40% 2 30.10.2026 -
Leonardo Castro Millonarios Ativo 105 / 130 40% 1 24.10.2026 -
Talles Magno New York City Ativo 118 / 121 40% 1 17.10.2026 -
Fabrizio Sartori Independiente Rivadavia Ativo 116 / 109 40% 1 13.10.2026 -
Matías Vargas Gimnasia y Esgrima Ativo 148 / 125 40% 2 09.10.2026 -
Daniel Valencia America de Cali Ativo 120 / 121 40% 1 05.10.2026 -
Ruyery Blanco Alianza Petrolera Ativo 126 / 111 40% 1 29.09.2026 -
Brayan Moreno Santa Fe Ativo 116 / 108 40% 1 27.09.2026 -
Facundo Suárez Instituto Ativo 124 / 117 40% 1 24.09.2026 -
Felipe Mora San Luis Ativo 119 / 131 40% 1 23.09.2026 -
Sergio González Racing Ativo 116 / 103 40% 1 23.09.2026 -
Javier Correa Colo-Colo Ativo 124 / 120 40% 1 19.09.2026 -
Emiliano Rigoni Belgrano Ativo 142 / 117 40% 1 18.09.2026 -
Rodrigo Bogarín Barracas Central Ativo 104 / 110 40% 1 16.09.2026 -
Octavio Rivero Universidad de Chile Ativo 134 / 133 40% 2 14.09.2026 -
Martín Giménez Defensores Unidos Ativo 110 / 105 40% 1 12.09.2026 -
Esteban da Silva Racing Ativo 94 / 120 40% 1 12.09.2026 -
Cristian Bordacahar Chacarita Juniors Ativo 98 / 125 40% 1 10.09.2026 -
Bruno Sepúlveda Platense Ativo 122 / 119 40% 1 10.09.2026 -
Bruno Larregui Juventud Ativo 117 / 124 40% 1 07.09.2026 -
Jorge Sánchez Atlas Ativo 135 / 138 40% 1 02.08.2026 -
Jaine Barreiro Millonarios Ativo 131 / 128 40% 1 02.08.2026 -